Skip Page Navigation
NASA JPL Caltech
NASA Logo - Jet Propulsion Laboratory + View the NASA Portal
+ Center for Near-Earth Object Studies
JPL Home Earth Solar System Stars & Galaxies Technology
JPL Solar System Dynamics
BODIES ORBITS EPHEMERIDES TOOLS PHYSICAL DATA DISCOVERY FAQ SITE MAP
JPL Small-Body Database Browser
Search: [ help ]  
3483 Svetlov (1976 YP2)
Classification: Inner Main-belt Asteroid          SPK-ID: 2003483
Ephemeris | Orbit Diagram | Orbital Elements | Mission Design | Physical Parameters | Discovery Circumstances | Close-Approach Data ]

[ show orbit diagram ]
Orbital Elements at Epoch 2459000.5 (2020-May-31.0) TDB
Reference: JPL 26 (heliocentric ecliptic J2000)
 Element Value Uncertainty (1-sigma)   Units 
e .1245959260253641 4.8996e-08  
a 1.932857167077976 5.682e-09 au
q 1.692031038471134 9.4611e-08 au
i 23.61293356331484 4.6183e-06 deg
node 85.93811099318403 1.2149e-05 deg
peri 277.5409753338906 2.0931e-05 deg
M 130.5614754099224 1.8043e-05 deg
tp 2458644.532278834548
(2019-Jun-10.03227883)
4.8913e-05 TDB
period 981.5175511552454
2.69
4.328e-06
1.185e-08
d
yr
n .3667789736172117 1.6173e-09 deg/d
Q 2.173683295684819 6.39e-09 au
  Orbit Determination Parameters
   # obs. used (total)      1704  
   data-arc span      15890 days (43.50 yr)  
   first obs. used      1976-12-16  
   last obs. used      2020-06-18  
   planetary ephem.      DE431  
   SB-pert. ephem.      SB431-N16  
   condition code      0  
   norm. resid. RMS      .40787  
   source      ORB  
   producer      Otto Matic  
   solution date      2020-Jun-23 15:58:09  

Additional Information
 Earth MOID = .824604 au 
 Jupiter MOID = 3.24257 au 
 T_jup = 3.800 
[ hide covariance matrix ]
Orbital Elements at Epoch 2456724.5 (2014-Mar-08.0) TDB
Reference: JPL 26 (heliocentric ecliptic J2000)
 Element Value Uncertainty (1-sigma)   Units 
e .124429356890727 4.9009e-08  
q 1.692180498924593 9.4604e-08 au
tp 2456681.064881172350
(2014-Jan-23.56488117)
4.8296e-05 TDB
node 85.97929206598103 1.2149e-05 deg
peri 277.3705074926553 2.0953e-05 deg
i 23.61356833029993 4.6184e-06 deg
  Orbit Determination Parameters
   # obs. used (total)      1704  
   data-arc span      15890 days (43.50 yr)  
   first obs. used      1976-12-16  
   last obs. used      2020-06-18  
   planetary ephem.      DE431  
   SB-pert. ephem.      SB431-N16  
   condition code      0  
   norm. resid. RMS      .40787  
   source      ORB  
   producer      Otto Matic  
   solution date      2020-Jun-23 15:58:09  

Additional Information
 Jupiter MOID = 3.24257 au 
 T_jup = 3.800 
Orbit Covariance (6×6)
  e q tp node peri i
e 2.401873760776666E-15 -4.630065762305864E-15 2.366157151789514E-13 1.017142446792235E-14 4.677506890317324E-15 -8.274172083186506E-15
q -4.630065762305864E-15 8.949897524690741E-15 -4.587873188001734E-13 -1.953448276647892E-14 -1.03093063191179E-14 1.621551340738543E-14
tp 2.366157151789514E-13 -4.587873188001734E-13 2.332491038092621E-9 9.830399020184337E-12 8.383847723987456E-10 -3.691558969128295E-12
node 1.017142446792235E-14 -1.953448276647892E-14 9.830399020184337E-12 1.476001631146595E-10 -1.315528851296898E-10 -5.648458024561806E-12
peri 4.677506890317324E-15 -1.03093063191179E-14 8.383847723987456E-10 -1.315528851296898E-10 4.390089254152569E-10 4.046909404715858E-12
i -8.274172083186506E-15 1.621551340738543E-14 -3.691558969128295E-12 -5.648458024561806E-12 4.046909404715858E-12 2.132919281053695E-11

Ephemeris | Orbit Diagram | Orbital Elements | Mission Design | Physical Parameters | Discovery Circumstances | Close-Approach Data ]

Physical Parameter Table
Parameter Symbol Value Units Sigma Reference Notes
absolute magnitude H 13.8   n/a MPO395029  
diameter diameter 2.916 km 0.070 urn:nasa:pds:neowise_diameters_albedos::2.0[mainbelt] (http://adsabs.harvard.edu/abs/2011ApJ...741...68M)  
rotation period rot_per 6.790 h n/a LCDB (Rev. 2019-August); Warner et al., 2009 Published Reference List:
[Warner, B.D. (2010) Minor Planet Bull. 37, 161-165.]
[Warner, B.D. (2012) Minor Planet Bull. 39, 158-167.]
[Warner, B.D. (2015) Minor Planet Bull. 42, 108-114.]
[Warner, B.D. (2015) Minor Planet Bull. 42, 267-276.]
[Warner, B.D. (2018) Minor Planet Bull. 45, 380-386.]
geometric albedo albedo 0.827   0.063 urn:nasa:pds:neowise_diameters_albedos::2.0[mainbelt] (http://adsabs.harvard.edu/abs/2011ApJ...741...68M)  

3483 Svetlov (1976 YP2)          Discovered 1976-Dec-16 by Chernykh, L. at Nauchnyj
Reference: DISCOVERY.DBLast Updated: 2003-08-29

[ hide close-approach data ]
Close-Approach Data   ...sorted by Date/Time (TDB)
Date/Time (TDB) Time Uncertainty
(days_HH:MM)
Body Nominal Distance (au) Minimum Distance (au) Maximum Distance (au) V-relative (km/s) V-infinity (km/s) JD (TDB) Time Uncertainty (minutes) Semi-major axis (km) Semi-minor axis (km) range-LOV angle (deg) N-sigma BP Orbit Ref. Reference Modified
2113-Dec-28 10:47 < 00:01 Iris 0.0470280319003089 0.0470255713076805 0.0470304956937393 11.5181252371675 11.5181252265546 2493178.949000122 0.52447554762773 636.721298809565 24.9231022128463 -79.1085807434732 277181.170297451 T 26 CATAB v2.0f-lin.ifort 2020-Jun-23 15:58:20 2020-Jun-23 15:58

Alternate Designations
 1976 YP2 = 1980 FB9 = 1984 YA 
Ephemeris | Orbit Diagram | Orbital Elements | Mission Design | Physical Parameters | Discovery Circumstances | Close-Approach Data ]
ABOUT SSD CREDITS/AWARDS PRIVACY/COPYRIGHT GLOSSARY LINKS
FirstGov 2020-Nov-27 17:36 UT
(server date/time)  
NASA Home Page
Site Manager:   Ryan S. Park
Webmaster  Alan B. Chamberlin